TimeEST,TemperatureF,Dew PointF,Humidity,Sea Level PressureIn,VisibilityMPH,Wind Direction,Wind SpeedMPH,Gust SpeedMPH,PrecipitationIn,Events,Conditions,WindDirDegrees,DateUTC
12:51 AM,27.0,25.0,92,30.28,9.0,Calm,Calm,-,N/A,,Clear,0,2011-11-26 05:51:00
1:51 AM,27.0,25.0,92,30.28,10.0,Calm,Calm,-,N/A,,Clear,0,2011-11-26 06:51:00
2:51 AM,26.1,23.0,88,30.29,10.0,Calm,Calm,-,N/A,,Clear,0,2011-11-26 07:51:00
3:51 AM,26.1,24.1,92,30.28,10.0,Calm,Calm,-,N/A,,Clear,0,2011-11-26 08:51:00
4:51 AM,26.1,24.1,92,30.30,10.0,Calm,Calm,-,N/A,,Clear,0,2011-11-26 09:51:00
5:51 AM,25.0,23.0,92,30.34,9.0,Calm,Calm,-,N/A,,Clear,0,2011-11-26 10:51:00
6:51 AM,26.6,24.8,93,30.30,10.0,Calm,Calm,-,N/A,,Clear,0,2011-11-26 11:51:00
7:51 AM,30.9,27.0,85,30.39,10.0,Calm,Calm,-,N/A,,Clear,0,2011-11-26 12:51:00
8:51 AM,37.9,30.9,76,30.39,10.0,Calm,Calm,-,N/A,,Clear,0,2011-11-26 13:51:00
9:51 AM,44.1,34.0,68,30.38,10.0,Calm,Calm,-,N/A,,Clear,0,2011-11-26 14:51:00
10:51 AM,57.0,39.9,53,30.35,10.0,SW,4.6,-,N/A,,Scattered Clouds,220,2011-11-26 15:51:00
11:51 AM,59.0,42.1,53,30.33,10.0,Variable,6.9,-,N/A,,Mostly Cloudy,0,2011-11-26 16:51:00
12:51 PM,60.1,42.1,51,30.30,10.0,SW,10.4,-,N/A,,Mostly Cloudy,220,2011-11-26 17:51:00
1:51 PM,60.8,41.0,48,30.22,10.0,SW,5.8,-,N/A,,Partly Cloudy,230,2011-11-26 18:51:00
2:51 PM,60.1,39.9,47,30.24,10.0,South,6.9,-,N/A,,Clear,190,2011-11-26 19:51:00
3:51 PM,60.1,39.9,47,30.23,10.0,SSW,5.8,-,N/A,,Clear,200,2011-11-26 20:51:00
4:51 PM,51.1,39.9,66,30.25,10.0,Calm,Calm,-,N/A,,Clear,0,2011-11-26 21:51:00
5:51 PM,45.0,39.0,80,30.25,10.0,Calm,Calm,-,N/A,,Clear,0,2011-11-26 22:51:00
6:51 PM,42.1,37.9,85,30.25,10.0,Calm,Calm,-,N/A,,Clear,0,2011-11-26 23:51:00
7:51 PM,37.0,35.1,93,30.25,10.0,Calm,Calm,-,N/A,,Clear,0,2011-11-27 00:51:00
8:51 PM,36.0,34.0,93,30.23,9.0,Calm,Calm,-,N/A,,Clear,0,2011-11-27 01:51:00
9:51 PM,35.6,33.8,93,30.15,6.0,Calm,Calm,-,N/A,,Clear,0,2011-11-27 02:51:00
10:41 PM,33.8,32.0,93,30.14,2.0,Calm,Calm,-,N/A,,Clear,0,2011-11-27 03:41:00
10:51 PM,33.1,32.0,96,30.18,6.0,Calm,Calm,-,N/A,,Clear,0,2011-11-27 03:51:00
11:51 PM,32.0,30.9,96,30.17,5.0,Calm,Calm,-,N/A,,Clear,0,2011-11-27 04:51:00